Location: Quedlinburg
(51.7921°N, 11.1414°E)
Time: 22:42:44
(UTC+02:00)

SEEDS - Pass Details

Date: 22 March 2026
Orbit: 470 x 477 km, 97.8° (Epoch: 21 April)

Event Time Altitude Azimuth Distance (km) Brightness Sun altitude
Rises 05:13:15 0° 21° (NNE) 2,554 ? -10.1°
Reaches altitude 10° 05:15:28 10° 31° (NNE) 1,667 ? -9.8°
Maximum altitude 05:18:44 33° 97° (E) 830 ? -9.3°
Drops below altitude 10° 05:21:58 10° 163° (SSE) 1,646 ? -8.8°
Sets 05:24:09 0° 173° (S) 2,517 ? -8.5°
